Location: Lugrin
(46.4033°N, 6.6674°E)
Time: 07:58:30
(UTC+00:00)

Tsikada Rocket - Pass Details

Date: 17 January 2021
Orbit: 957 x 1009 km, 82.9° (Epoch: 04 March)

Event Time Altitude Azimuth Distance (km) Brightness Sun altitude
Rises 17:15:53 0° 194° (SSW) 3,712 7.5 -10.2°
Reaches altitude 10° 17:18:26 10° 197° (SSW) 2,760 6.9 -10.6°
Maximum altitude 17:24:45 69° 281° (W) 1,058 4.4 -11.6°
Drops below altitude 10° 17:31:01 10° 4° (N) 2,743 6.1 -12.7°
Sets 17:33:33 0° 7° (N) 3,687 6.8 -13.1°
